,

(GMT )
Munich

Weather History for EDDM - June, 2018

Change the Weather History Date:

Wednesday, June 13, 2018

  Actual Average Record
Temperature  
Mean Temperature 58 °F -  
Max Temperature 60 °F 71 °F 82 °F (2000)
Min Temperature 55 °F 52 °F 44 °F (1998)
Degree Days  
Heating Degree Days 8    
Growing Degree Days 8 (Base 50)    
Moisture  
Dew Point 54 °F    
Average Humidity 87    
Maximum Humidity 100    
Minimum Humidity 72    
Precipitation  
Precipitation 0.00 in - - ()
Sea Level Pressure  
Sea Level Pressure 29.86 in    
Wind  
Wind Speed 5 mph ()    
Max Wind Speed 10 mph    
Max Gust Speed -    
Visibility 5.4 miles    
Events Rain    
Averages and records for this station are not official NWS values.
T = Trace of Precipitation, MM = Missing Value Source: Averaged Metar Reports

Daily Weather History Graph

Daily Weather History Graph

Search for Another Location

Airport or City:

Astronomy

Jun. 13, 2018 Rise Set
Actual Time 5:12 AM CEST 9:14 PM CEST
Civil Twilight 4:31 AM CEST 9:55 PM CEST
Nautical Twilight 3:34 AM CEST 10:52 PM CEST
Astronomical Twilight 1:57 AM CEST 12:31 AM CEST
Moon 5:08 AM CEST (6/13) 8:44 PM CEST (6/13)
Length of Visible Light 17h 23m
Length of Day
16h 01m
Waning Crescent, 0% of the Moon is Illuminated
Jun 13
Waning Crescent
Jun 13
New
Jun 20
First Quarter
Jun 28
Full
Jul 6
Last Quarter

Hourly Weather History & Observations

Time (CEST) Temp. Dew Point Humidity Pressure Visibility Wind Dir Wind Speed Gust Speed Precip Events Conditions
12:20 AM 59.0 °F 59.0 °F 100% 29.80 in 5.0 mi WSW 5.8 mph - N/A Rain Rain
12:50 AM 60.8 °F 59.0 °F 94% 29.77 in 4.3 mi Variable 2.3 mph - N/A Rain Rain
1:20 AM 59.0 °F 59.0 °F 100% 29.77 in 4.3 mi West 5.8 mph - N/A Rain Rain
1:50 AM 59.0 °F 59.0 °F 100% 29.77 in 4.3 mi Variable 2.3 mph - N/A Rain Rain
2:20 AM 59.0 °F 59.0 °F 100% 29.77 in 6.2 mi WNW 3.5 mph - N/A Rain Rain
2:50 AM 59.0 °F 57.2 °F 94% 29.77 in 6.2 mi Variable 2.3 mph - N/A Rain Light Rain
3:20 AM 59.0 °F 57.2 °F 94% 29.77 in 6.2 mi West 3.5 mph - N/A Rain Light Rain
3:50 AM 59.0 °F 57.2 °F 94% 29.77 in 6.2 mi West 3.5 mph - N/A Rain Light Rain
4:20 AM 59.0 °F 59.0 °F 100% 29.74 in 6.2 mi West 2.3 mph - N/A Rain Light Rain
4:50 AM 60.8 °F 59.0 °F 94% 29.74 in 5.0 mi West 2.3 mph - N/A Rain Light Rain
5:20 AM 60.8 °F 59.0 °F 94% 29.74 in 3.7 mi West 3.5 mph - N/A Rain Light Rain
5:50 AM 60.8 °F 59.0 °F 94% 29.74 in 3.7 mi NNW 4.6 mph - N/A Rain Light Rain
6:20 AM 59.0 °F 59.0 °F 100% 29.77 in 1.9 mi North 5.8 mph - N/A Rain Rain Showers
6:50 AM 59.0 °F 57.2 °F 94% 29.77 in 1.9 mi North 6.9 mph - N/A Rain Light Rain Showers
7:20 AM 57.2 °F 55.4 °F 94% 29.77 in 3.1 mi North 6.9 mph - N/A Rain Light Rain Showers
7:50 AM 57.2 °F 55.4 °F 94% 29.77 in 3.7 mi North 8.1 mph - N/A Rain Light Rain Showers
8:20 AM 57.2 °F 55.4 °F 94% 29.77 in 3.7 mi North 8.1 mph - N/A Rain Light Rain
8:50 AM 55.4 °F 53.6 °F 94% 29.80 in 3.7 mi North 10.4 mph - N/A Rain Light Rain
9:20 AM 55.4 °F 53.6 °F 94% 29.80 in 4.3 mi NNW 8.1 mph - N/A Rain Light Rain
9:50 AM 55.4 °F 53.6 °F 94% 29.80 in 4.3 mi NNW 8.1 mph - N/A Rain Light Rain
10:20 AM 55.4 °F 53.6 °F 94% 29.83 in 5.0 mi NNW 10.4 mph - N/A Rain Light Rain
10:50 AM 55.4 °F 53.6 °F 94% 29.83 in 6.2 mi NNW 10.4 mph - N/A Rain Light Rain
11:20 AM 55.4 °F 53.6 °F 94% 29.83 in 6.2 mi NNW 9.2 mph - N/A Rain Light Rain
11:50 AM 55.4 °F 53.6 °F 94% 29.83 in 6.2 mi NNW 6.9 mph - N/A Rain Light Rain
12:20 PM 57.2 °F 53.6 °F 88% 29.86 in 6.2 mi NNW 9.2 mph - N/A   Mostly Cloudy
12:50 PM 57.2 °F 53.6 °F 88% 29.86 in 6.2 mi NW 9.2 mph - N/A   Mostly Cloudy
1:20 PM 57.2 °F 51.8 °F 82% 29.86 in 6.2 mi NW 9.2 mph - N/A   Mostly Cloudy
1:50 PM 57.2 °F 51.8 °F 82% 29.86 in 6.2 mi NW 8.1 mph - N/A   Mostly Cloudy
2:20 PM 57.2 °F 51.8 °F 82% 29.89 in 6.2 mi NNW 9.2 mph - N/A   Mostly Cloudy
2:50 PM 57.2 °F 51.8 °F 82% 29.89 in 6.2 mi NNW 8.1 mph - N/A   Mostly Cloudy
3:20 PM 59.0 °F 51.8 °F 77% 29.89 in 6.2 mi NW 8.1 mph - N/A   Mostly Cloudy
3:50 PM 59.0 °F 51.8 °F 77% 29.89 in 6.2 mi NW 6.9 mph - N/A   Mostly Cloudy
4:20 PM 59.0 °F 51.8 °F 77% 29.89 in 6.2 mi WNW 10.4 mph - N/A   Mostly Cloudy
4:50 PM 57.2 °F 51.8 °F 82% 29.92 in 6.2 mi WNW 6.9 mph - N/A   Mostly Cloudy
5:20 PM 57.2 °F 51.8 °F 82% 29.92 in 6.2 mi WNW 6.9 mph - N/A Rain Light Rain
5:50 PM 57.2 °F 51.8 °F 82% 29.92 in 6.2 mi WNW 6.9 mph - N/A   Mostly Cloudy
6:20 PM 57.2 °F 50.0 °F 77% 29.92 in 6.2 mi WNW 10.4 mph - N/A   Mostly Cloudy
6:50 PM 57.2 °F 50.0 °F 77% 29.95 in 6.2 mi WNW 9.2 mph - N/A   Overcast
7:20 PM 57.2 °F 48.2 °F 72% 29.95 in 6.2 mi WNW 6.9 mph - N/A   Overcast
7:50 PM 57.2 °F 48.2 °F 72% 29.95 in 6.2 mi West 8.1 mph - N/A   Overcast
8:20 PM 57.2 °F 50.0 °F 77% 29.98 in 6.2 mi West 4.6 mph - N/A   Overcast
8:50 PM 57.2 °F 48.2 °F 72% 29.98 in 6.2 mi WNW 5.8 mph - N/A   Overcast
9:20 PM 57.2 °F 48.2 °F 72% 29.98 in 6.2 mi West 5.8 mph - N/A   Overcast
9:50 PM 57.2 °F 48.2 °F 72% 30.01 in 6.2 mi West 5.8 mph - N/A   Overcast
10:20 PM 57.2 °F 48.2 °F 72% 30.01 in 6.2 mi West 6.9 mph - N/A   Overcast
10:50 PM 57.2 °F 48.2 °F 72% 30.01 in 6.2 mi West 5.8 mph - N/A   Overcast
11:20 PM 55.4 °F 48.2 °F 77% 30.01 in 6.2 mi West 6.9 mph - N/A   Overcast
11:50 PM 55.4 °F 48.2 °F 77% 30.04 in 6.2 mi West 5.8 mph - N/A   Overcast